| time (UTC) | temp C | wind direction | speed KPH | gust KPH | rain 1hr cm | rain 24hr cm | rain mn cm | humidity % | barometer mb |
| 20260510092928 | 21 | 109 | 1.6 | 6.4 | 0.00 | 0.00 | 0.00 | 53 | 1007.6 |
| 20260510092428 | 21 | 337 | 1.6 | 4.8 | 0.00 | 0.00 | 0.00 | 54 | 1007.6 |
| 20260510091927 | 21 | 262 | 0.0 | 3.2 | 0.00 | 0.00 | 0.00 | 54 | 1007.6 |
| 20260510091427 | 21 | 217 | 0.0 | 11.3 | 0.00 | 0.00 | 0.00 | 54 | 1007.7 |
| 20260510090927 | 21 | 274 | 3.2 | 12.9 | 0.00 | 0.00 | 0.00 | 55 | 1007.8 |
| 20260510090426 | 20 | 240 | 1.6 | 9.7 | 0.00 | 0.00 | 0.00 | 55 | 1007.8 |
| 20260510085926 | 20 | 146 | 0.0 | 4.8 | 0.00 | 0.00 | 0.00 | 56 | 1007.8 |
| 20260510085426 | 20 | 237 | 1.6 | 4.8 | 0.00 | 0.00 | 0.00 | 56 | 1007.9 |
| 20260510084926 | 20 | 265 | 1.6 | 4.8 | 0.00 | 0.00 | 0.00 | 56 | 1007.9 |
| 20260510084425 | 20 | 284 | 0.0 | 1.6 | 0.00 | 0.00 | 0.00 | 57 | 1007.9 |
| 20260510083925 | 20 | 303 | 0.0 | 6.4 | 0.00 | 0.00 | 0.00 | 57 | 1008.0 |
| 20260510083425 | 19 | 315 | 1.6 | 8.0 | 0.00 | 0.00 | 0.00 | 57 | 1008.0 |
| 20260510082924 | 19 | 289 | 0.0 | 11.3 | 0.00 | 0.00 | 0.00 | 57 | 1008.0 |
| 20260510082424 | 19 | 255 | 1.6 | 8.0 | 0.00 | 0.00 | 0.00 | 58 | 1008.1 |
| 20260510081924 | 18 | 104 | 1.6 | 6.4 | 0.00 | 0.00 | 0.00 | 59 | 1008.0 |
| 20260510081424 | 18 | 219 | 0.0 | 9.7 | 0.00 | 0.00 | 0.00 | 59 | 1008.1 |
| 20260510080923 | 18 | 272 | 3.2 | 8.0 | 0.00 | 0.00 | 0.00 | 59 | 1008.2 |
| 20260510080423 | 18 | 257 | 1.6 | 8.0 | 0.00 | 0.00 | 0.00 | 60 | 1008.2 |
| 20260510075923 | 18 | 262 | 3.2 | 8.0 | 0.00 | 0.00 | 0.00 | 60 | 1008.3 |
| 20260510075422 | 18 | 326 | 0.0 | 6.4 | 0.00 | 0.00 | 0.00 | 61 | 1008.4 |
| 20260510074922 | 18 | 161 | 0.0 | 8.0 | 0.00 | 0.00 | 0.00 | 61 | 1008.4 |
| 20260510074422 | 18 | 177 | 0.0 | 8.0 | 0.00 | 0.00 | 0.00 | 61 | 1008.4 |
| 20260510073922 | 17 | 274 | 0.0 | 6.4 | 0.00 | 0.00 | 0.00 | 62 | 1008.4 |
| 20260510073421 | 17 | 268 | 1.6 | 9.7 | 0.00 | 0.00 | 0.00 | 63 | 1008.4 |
| 20260510072921 | 17 | 258 | 0.0 | 9.7 | 0.00 | 0.00 | 0.00 | 63 | 1008.4 |
| 20260510072421 | 17 | 209 | 0.0 | 6.4 | 0.00 | 0.00 | 0.00 | 64 | 1008.4 |
| 20260510071920 | 17 | 201 | 0.0 | 9.7 | 0.00 | 0.00 | 0.00 | 64 | 1008.4 |
| 20260510071420 | 17 | 277 | 1.6 | 9.7 | 0.00 | 0.00 | 0.00 | 65 | 1008.4 |
| 20260510070920 | 17 | 225 | 4.8 | 6.4 | 0.00 | 0.00 | 0.00 | 66 | 1008.5 |
| 20260510070420 | 16 | 305 | 0.0 | 4.8 | 0.00 | 0.00 | 0.00 | 67 | 1008.5 |
| 20260510065919 | 16 | 219 | 4.8 | 8.0 | 0.00 | 0.00 | 0.00 | 68 | 1008.6 |
| 20260510065419 | 16 | 236 | 0.0 | 4.8 | 0.00 | 0.00 | 0.00 | 68 | 1008.5 |
| 20260510064919 | 16 | 302 | 0.0 | 11.3 | 0.00 | 0.00 | 0.00 | 68 | 1008.6 |
| 20260510064418 | 16 | 265 | 1.6 | 4.8 | 0.00 | 0.00 | 0.00 | 69 | 1008.6 |
| 20260510063918 | 16 | 281 | 1.6 | 3.2 | 0.00 | 0.00 | 0.00 | 69 | 1008.8 |
| 20260510063418 | 16 | 213 | 0.0 | 0.0 | 0.00 | 0.00 | 0.00 | 69 | 1008.8 |
| 20260510062918 | 16 | 213 | 0.0 | 8.0 | 0.00 | 0.00 | 0.00 | 69 | 1008.8 |
| 20260510062417 | 16 | 272 | 3.2 | 6.4 | 0.00 | 0.00 | 0.00 | 70 | 1008.6 |
| 20260510061917 | 16 | 248 | 3.2 | 6.4 | 0.00 | 0.00 | 0.00 | 70 | 1008.6 |
| 20260510061417 | 15 | 239 | 1.6 | 4.8 | 0.00 | 0.00 | 0.00 | 70 | 1008.6 |
| 20260510060916 | 15 | 267 | 1.6 | 3.2 | 0.00 | 0.00 | 0.00 | 70 | 1008.6 |
| 20260510060416 | 15 | 230 | 0.0 | 0.0 | 0.00 | 0.00 | 0.00 | 70 | 1008.8 |
| 20260510055916 | 15 | 230 | 0.0 | 6.4 | 0.00 | 0.00 | 0.00 | 70 | 1008.8 |
| 20260510055416 | 15 | 313 | 0.0 | 3.2 | 0.00 | 0.00 | 0.00 | 70 | 1008.8 |
| 20260510054915 | 15 | 236 | 3.2 | 4.8 | 0.00 | 0.00 | 0.00 | 70 | 1008.8 |
| 20260510054415 | 15 | 264 | 0.0 | 3.2 | 0.00 | 0.00 | 0.00 | 70 | 1008.8 |
| 20260510053915 | 15 | 123 | 1.6 | 4.8 | 0.00 | 0.00 | 0.00 | 70 | 1008.8 |
| 20260510053415 | 15 | 271 | 1.6 | 4.8 | 0.00 | 0.00 | 0.00 | 70 | 1008.9 |
| 20260510052914 | 15 | 250 | 0.0 | 3.2 | 0.00 | 0.00 | 0.00 | 70 | 1008.9 |
| 20260510052414 | 15 | 265 | 1.6 | 3.2 | 0.00 | 0.00 | 0.00 | 70 | 1008.9 |
| 20260510051914 | 15 | 264 | 0.0 | 1.6 | 0.00 | 0.00 | 0.00 | 70 | 1008.9 |
| 20260510051413 | 15 | 247 | 0.0 | 0.0 | 0.00 | 0.00 | 0.00 | 70 | 1009.0 |
| 20260510050913 | 15 | 282 | 0.0 | 1.6 | 0.00 | 0.00 | 0.00 | 70 | 1008.9 |
| 20260510050413 | 15 | 293 | 1.6 | 1.6 | 0.00 | 0.00 | 0.00 | 70 | 1009.0 |
| 20260510045913 | 15 | 291 | 0.0 | 3.2 | 0.00 | 0.00 | 0.00 | 70 | 1008.9 |
| 20260510045412 | 14 | 229 | 0.0 | 1.6 | 0.00 | 0.00 | 0.00 | 70 | 1009.0 |
| 20260510044912 | 14 | 251 | 1.6 | 4.8 | 0.00 | 0.00 | 0.00 | 70 | 1008.9 |
| 20260510044412 | 14 | 229 | 0.0 | 4.8 | 0.00 | 0.00 | 0.00 | 69 | 1009.0 |
| 20260510043911 | 14 | 243 | 0.0 | 3.2 | 0.00 | 0.00 | 0.00 | 69 | 1009.0 |
| 20260510043411 | 15 | 223 | 0.0 | 1.6 | 0.00 | 0.00 | 0.00 | 69 | 1009.1 |
| 20260510042911 | 14 | 229 | 0.0 | 1.6 | 0.00 | 0.00 | 0.00 | 69 | 1009.1 |
| 20260510042411 | 14 | 220 | 0.0 | 3.2 | 0.00 | 0.00 | 0.00 | 69 | 1009.1 |
| 20260510041910 | 15 | 206 | 0.0 | 1.6 | 0.00 | 0.00 | 0.00 | 68 | 1009.1 |
| 20260510041410 | 15 | 265 | 1.6 | 3.2 | 0.00 | 0.00 | 0.00 | 68 | 1009.2 |
| 20260510040910 | 15 | 201 | 0.0 | 0.0 | 0.00 | 0.00 | 0.00 | 68 | 1009.1 |
| 20260510040409 | 15 | 219 | 0.0 | 3.2 | 0.00 | 0.00 | 0.00 | 68 | 1009.1 |
| 20260510035909 | 15 | 261 | 0.0 | 0.0 | 0.00 | 0.00 | 0.00 | 68 | 1009.1 |
| 20260510035409 | 15 | 261 | 0.0 | 0.0 | 0.00 | 0.00 | 0.00 | 68 | 1009.1 |
| 20260510034909 | 15 | 261 | 0.0 | 0.0 | 0.00 | 0.00 | 0.00 | 68 | 1009.2 |
| 20260510034408 | 15 | 261 | 0.0 | 0.0 | 0.00 | 0.00 | 0.00 | 67 | 1009.3 |
| 20260510033908 | 15 | 261 | 0.0 | 1.6 | 0.00 | 0.00 | 0.00 | 67 | 1009.2 |
| 20260510033408 | 15 | 279 | 1.6 | 1.6 | 0.00 | 0.00 | 0.00 | 67 | 1009.2 |
| 20260510032907 | 15 | 234 | 0.0 | 0.0 | 0.00 | 0.00 | 0.00 | 67 | 1009.3 |
| 20260510032407 | 15 | 251 | 0.0 | 1.6 | 0.00 | 0.00 | 0.00 | 66 | 1009.3 |
| 20260510031907 | 15 | 232 | 0.0 | 1.6 | 0.00 | 0.00 | 0.00 | 66 | 1009.3 |
| 20260510031407 | 15 | 247 | 0.0 | 1.6 | 0.00 | 0.00 | 0.00 | 65 | 1009.4 |
| 20260510030906 | 16 | 210 | 0.0 | 4.8 | 0.00 | 0.00 | 0.00 | 65 | 1009.5 |
| 20260510030406 | 16 | 206 | 0.0 | 3.2 | 0.00 | 0.00 | 0.00 | 64 | 1009.6 |
| 20260510025906 | 16 | 237 | 0.0 | 4.8 | 0.00 | 0.00 | 0.00 | 64 | 1009.6 |
| 20260510025405 | 16 | 241 | 0.0 | 1.6 | 0.00 | 0.00 | 0.00 | 64 | 1009.6 |
| 20260510024905 | 16 | 154 | 0.0 | 0.0 | 0.00 | 0.00 | 0.00 | 64 | 1009.6 |
| 20260510024405 | 16 | 154 | 0.0 | 0.0 | 0.00 | 0.00 | 0.00 | 63 | 1009.5 |
| 20260510023905 | 16 | 154 | 0.0 | 0.0 | 0.00 | 0.00 | 0.00 | 63 | 1009.5 |
| 20260510023404 | 16 | 154 | 0.0 | 0.0 | 0.00 | 0.00 | 0.00 | 63 | 1009.4 |
| 20260510022904 | 16 | 154 | 0.0 | 0.0 | 0.00 | 0.00 | 0.00 | 63 | 1009.6 |
| 20260510022404 | 16 | 154 | 0.0 | 0.0 | 0.00 | 0.00 | 0.00 | 62 | 1009.6 |
| 20260510021903 | 16 | 154 | 0.0 | 0.0 | 0.00 | 0.00 | 0.00 | 62 | 1009.6 |
| 20260510021403 | 16 | 154 | 0.0 | 0.0 | 0.00 | 0.00 | 0.00 | 62 | 1009.7 |
| 20260510020903 | 16 | 154 | 0.0 | 0.0 | 0.00 | 0.00 | 0.00 | 62 | 1009.7 |
| 20260510020403 | 16 | 154 | 0.0 | 0.0 | 0.00 | 0.00 | 0.00 | 62 | 1009.6 |
| 20260510015902 | 17 | 154 | 0.0 | 0.0 | 0.00 | 0.00 | 0.00 | 62 | 1009.7 |
| 20260510015402 | 17 | 127 | 0.0 | 0.0 | 0.00 | 0.00 | 0.00 | 62 | 1009.7 |
| 20260510014902 | 16 | 127 | 0.0 | 0.0 | 0.00 | 0.00 | 0.00 | 62 | 1009.6 |
| 20260510014401 | 16 | 127 | 0.0 | 0.0 | 0.00 | 0.00 | 0.00 | 62 | 1009.7 |
| 20260510013901 | 16 | 127 | 0.0 | 1.6 | 0.00 | 0.00 | 0.00 | 62 | 1009.7 |
| 20260510013401 | 17 | 174 | 1.6 | 1.6 | 0.00 | 0.00 | 0.00 | 61 | 1009.7 |
| 20260510012901 | 17 | 234 | 0.0 | 0.0 | 0.00 | 0.00 | 0.00 | 61 | 1009.8 |
| 20260510012400 | 17 | 254 | 0.0 | 3.2 | 0.00 | 0.00 | 0.00 | 61 | 1009.8 |
| 20260510011900 | 17 | 78 | 0.0 | 0.0 | 0.00 | 0.00 | 0.00 | 61 | 1009.8 |
| 20260510011400 | 17 | 78 | 0.0 | 3.2 | 0.00 | 0.00 | 0.00 | 61 | 1009.9 |
| 20260510010859 | 17 | 261 | 0.0 | 1.6 | 0.00 | 0.00 | 0.00 | 61 | 1009.8 |
| 20260510010359 | 17 | 223 | 0.0 | 0.0 | 0.00 | 0.00 | 0.00 | 61 | 1009.9 |
| 20260510005859 | 17 | 223 | 0.0 | 1.6 | 0.00 | 0.00 | 0.00 | 60 | 1010.0 |
| 20260510005359 | 17 | 116 | 0.0 | 3.2 | 0.00 | 0.00 | 0.00 | 60 | 1010.0 |
| 20260510004858 | 17 | 118 | 0.0 | 0.0 | 0.00 | 0.00 | 0.00 | 60 | 1010.1 |
| 20260510004358 | 17 | 118 | 0.0 | 0.0 | 0.00 | 0.00 | 0.00 | 60 | 1010.2 |
| 20260510003858 | 17 | 118 | 0.0 | 0.0 | 0.00 | 0.00 | 0.00 | 60 | 1010.2 |
| 20260510003357 | 17 | 118 | 0.0 | 1.6 | 0.00 | 0.00 | 0.00 | 60 | 1010.3 |
| 20260510002857 | 17 | 237 | 0.0 | 1.6 | 0.00 | 0.00 | 0.00 | 60 | 1010.4 |
| 20260510002357 | 17 | 165 | 1.6 | 3.2 | 0.00 | 0.00 | 0.00 | 60 | 1010.4 |
| 20260510001857 | 17 | 125 | 0.0 | 0.0 | 0.00 | 0.00 | 0.00 | 59 | 1010.5 |
| 20260510001356 | 17 | 288 | 0.0 | 3.2 | 0.00 | 0.00 | 0.00 | 59 | 1010.6 |
| 20260510000856 | 17 | 236 | 0.0 | 0.0 | 0.00 | 0.00 | 0.00 | 59 | 1010.5 |
| 20260510000356 | 17 | 236 | 0.0 | 0.0 | 0.00 | 0.00 | 0.00 | 58 | 1010.7 |
| 20260509235856 | 17 | 236 | 0.0 | 0.0 | 0.00 | 0.00 | 0.00 | 58 | 1010.7 |
| 20260509235355 | 17 | 236 | 0.0 | 0.0 | 0.00 | 0.00 | 0.00 | 58 | 1010.8 |
| 20260509234855 | 17 | 236 | 0.0 | 0.0 | 0.00 | 0.00 | 0.00 | 57 | 1010.8 |
| 20260509234355 | 17 | 236 | 0.0 | 0.0 | 0.00 | 0.00 | 0.00 | 57 | 1010.9 |
| 20260509233854 | 18 | 236 | 0.0 | 0.0 | 0.00 | 0.00 | 0.00 | 57 | 1011.0 |
| 20260509233354 | 18 | 236 | 0.0 | 0.0 | 0.00 | 0.00 | 0.00 | 56 | 1010.9 |
| 20260509232854 | 18 | 236 | 0.0 | 0.0 | 0.00 | 0.00 | 0.00 | 56 | 1011.0 |
| 20260509232354 | 18 | 236 | 0.0 | 0.0 | 0.00 | 0.00 | 0.00 | 56 | 1011.0 |
| 20260509231853 | 18 | 127 | 0.0 | 0.0 | 0.00 | 0.00 | 0.00 | 55 | 1011.0 |
| 20260509231353 | 18 | 127 | 0.0 | 0.0 | 0.00 | 0.00 | 0.00 | 55 | 1011.0 |
| 20260509230853 | 18 | 127 | 0.0 | 0.0 | 0.00 | 0.00 | 0.00 | 55 | 1011.0 |
| 20260509230352 | 18 | 127 | 0.0 | 0.0 | 0.00 | 0.00 | 0.00 | 55 | 1011.0 |
| 20260509225852 | 18 | 127 | 0.0 | 0.0 | 0.00 | 0.00 | 0.00 | 55 | 1011.0 |
| 20260509225352 | 18 | 127 | 0.0 | 0.0 | 0.00 | 0.00 | 0.00 | 54 | 1011.0 |
| 20260509224852 | 18 | 127 | 0.0 | 0.0 | 0.00 | 0.00 | 0.00 | 54 | 1011.0 |
| 20260509224351 | 18 | 127 | 0.0 | 0.0 | 0.00 | 0.00 | 0.00 | 54 | 1011.0 |
| 20260509223851 | 18 | 127 | 0.0 | 1.6 | 0.00 | 0.00 | 0.00 | 54 | 1011.0 |
| 20260509223351 | 18 | 146 | 0.0 | 0.0 | 0.00 | 0.00 | 0.00 | 53 | 1011.1 |
| 20260509222850 | 18 | 146 | 0.0 | 0.0 | 0.00 | 0.00 | 0.00 | 53 | 1011.1 |
| 20260509222350 | 18 | 146 | 0.0 | 0.0 | 0.00 | 0.00 | 0.00 | 53 | 1011.2 |
| 20260509221850 | 18 | 146 | 0.0 | 1.6 | 0.00 | 0.00 | 0.00 | 52 | 1011.2 |
| 20260509221350 | 19 | 87 | 0.0 | 0.0 | 0.00 | 0.00 | 0.00 | 52 | 1011.3 |
| 20260509220849 | 19 | 87 | 0.0 | 1.6 | 0.00 | 0.00 | 0.00 | 52 | 1011.4 |
| 20260509220349 | 19 | 178 | 0.0 | 3.2 | 0.00 | 0.00 | 0.00 | 52 | 1011.4 |
| 20260509215849 | 18 | 84 | 0.0 | 3.2 | 0.00 | 0.00 | 0.00 | 51 | 1011.4 |
| 20260509215348 | 19 | 70 | 1.6 | 3.2 | 0.00 | 0.00 | 0.00 | 51 | 1011.4 |
| 20260509214848 | 19 | 282 | 0.0 | 3.2 | 0.00 | 0.00 | 0.00 | 51 | 1011.4 |
| 20260509214348 | 19 | 354 | 0.0 | 4.8 | 0.00 | 0.00 | 0.00 | 51 | 1011.5 |
| 20260509213848 | 19 | 144 | 0.0 | 3.2 | 0.00 | 0.00 | 0.00 | 50 | 1011.5 |
| 20260509213347 | 20 | 250 | 0.0 | 0.0 | 0.00 | 0.00 | 0.00 | 50 | 1011.6 |
| 20260509212847 | 20 | 250 | 0.0 | 1.6 | 0.00 | 0.00 | 0.00 | 49 | 1011.5 |
| 20260509212347 | 20 | 18 | 0.0 | 1.6 | 0.00 | 0.00 | 0.00 | 49 | 1011.5 |
| 20260509211846 | 20 | 98 | 0.0 | 3.2 | 0.00 | 0.00 | 0.00 | 49 | 1011.5 |
| 20260509211346 | 20 | 324 | 0.0 | 0.0 | 0.00 | 0.00 | 0.00 | 48 | 1011.6 |
| 20260509210846 | 20 | 168 | 0.0 | 4.8 | 0.00 | 0.00 | 0.00 | 48 | 1011.5 |
| 20260509210346 | 20 | 106 | 0.0 | 1.6 | 0.00 | 0.00 | 0.00 | 48 | 1011.4 |
| 20260509205845 | 20 | 250 | 0.0 | 0.0 | 0.00 | 0.00 | 0.00 | 48 | 1011.6 |
| 20260509205345 | 20 | 250 | 0.0 | 3.2 | 0.00 | 0.00 | 0.00 | 48 | 1011.6 |
| 20260509204845 | 20 | 112 | 0.0 | 0.0 | 0.00 | 0.00 | 0.00 | 47 | 1011.6 |
| 20260509204344 | 20 | 147 | 0.0 | 1.6 | 0.00 | 0.00 | 0.00 | 47 | 1011.6 |
| 20260509203844 | 20 | 109 | 0.0 | 0.0 | 0.00 | 0.00 | 0.00 | 47 | 1011.5 |
| 20260509203344 | 20 | 109 | 0.0 | 6.4 | 0.00 | 0.00 | 0.00 | 47 | 1011.4 |
| 20260509202844 | 20 | 106 | 0.0 | 4.8 | 0.00 | 0.00 | 0.00 | 47 | 1011.3 |
| 20260509202343 | 20 | 270 | 0.0 | 1.6 | 0.00 | 0.00 | 0.00 | 47 | 1011.4 |
| 20260509201843 | 20 | 293 | 0.0 | 3.2 | 0.00 | 0.00 | 0.00 | 47 | 1011.3 |
| 20260509201343 | 20 | 160 | 1.6 | 4.8 | 0.00 | 0.00 | 0.00 | 46 | 1011.3 |
| 20260509200842 | 20 | 143 | 0.0 | 0.0 | 0.00 | 0.00 | 0.00 | 46 | 1011.3 |
| 20260509200342 | 21 | 161 | 0.0 | 1.6 | 0.00 | 0.00 | 0.00 | 46 | 1011.3 |
| 20260509195842 | 21 | 219 | 0.0 | 3.2 | 0.00 | 0.00 | 0.00 | 46 | 1011.4 |
| 20260509195342 | 21 | 154 | 0.0 | 1.6 | 0.00 | 0.00 | 0.00 | 45 | 1011.4 |
| 20260509194841 | 21 | 181 | 0.0 | 1.6 | 0.00 | 0.00 | 0.00 | 45 | 1011.4 |
| 20260509194341 | 21 | 90 | 0.0 | 1.6 | 0.00 | 0.00 | 0.00 | 45 | 1011.4 |
| 20260509193841 | 21 | 102 | 0.0 | 3.2 | 0.00 | 0.00 | 0.00 | 44 | 1011.3 |
| 20260509193341 | 22 | 180 | 0.0 | 4.8 | 0.00 | 0.00 | 0.00 | 44 | 1011.3 |
| 20260509192840 | 22 | 132 | 0.0 | 0.0 | 0.00 | 0.00 | 0.00 | 44 | 1011.2 |
| 20260509192340 | 22 | 132 | 0.0 | 4.8 | 0.00 | 0.00 | 0.00 | 43 | 1011.2 |
| 20260509191840 | 22 | 91 | 0.0 | 3.2 | 0.00 | 0.00 | 0.00 | 43 | 1011.0 |
| 20260509191339 | 22 | 97 | 0.0 | 3.2 | 0.00 | 0.00 | 0.00 | 42 | 1011.1 |
| 20260509190839 | 22 | 170 | 1.6 | 3.2 | 0.00 | 0.00 | 0.00 | 42 | 1011.0 |
| 20260509190339 | 23 | 277 | 0.0 | 1.6 | 0.00 | 0.00 | 0.00 | 41 | 1011.0 |
| 20260509185839 | 23 | 112 | 0.0 | 0.0 | 0.00 | 0.00 | 0.00 | 41 | 1011.0 |
| 20260509185338 | 23 | 112 | 0.0 | 0.0 | 0.00 | 0.00 | 0.00 | 40 | 1011.0 |
| 20260509184838 | 23 | 112 | 0.0 | 0.0 | 0.00 | 0.00 | 0.00 | 40 | 1010.9 |
| 20260509184338 | 24 | 112 | 0.0 | 0.0 | 0.00 | 0.00 | 0.00 | 39 | 1010.9 |
| 20260509183837 | 24 | 112 | 0.0 | 0.0 | 0.00 | 0.00 | 0.00 | 39 | 1010.9 |
| 20260509183337 | 24 | 112 | 0.0 | 1.6 | 0.00 | 0.00 | 0.00 | 38 | 1010.9 |
| 20260509182837 | 25 | 119 | 0.0 | 0.0 | 0.00 | 0.00 | 0.00 | 37 | 1010.8 |
| 20260509182337 | 25 | 119 | 0.0 | 0.0 | 0.00 | 0.00 | 0.00 | 37 | 1010.8 |
| 20260509181836 | 25 | 81 | 0.0 | 0.0 | 0.00 | 0.00 | 0.00 | 36 | 1010.8 |
| 20260509181336 | 25 | 81 | 0.0 | 0.0 | 0.00 | 0.00 | 0.00 | 35 | 1010.9 |
| 20260509180836 | 26 | 81 | 0.0 | 0.0 | 0.00 | 0.00 | 0.00 | 35 | 1010.8 |
| 20260509180335 | 26 | 81 | 0.0 | 0.0 | 0.00 | 0.00 | 0.00 | 34 | 1010.8 |
| 20260509175835 | 26 | 81 | 0.0 | 1.6 | 0.00 | 0.00 | 0.00 | 34 | 1010.7 |
| 20260509175335 | 26 | 316 | 0.0 | 0.0 | 0.00 | 0.00 | 0.00 | 33 | 1010.7 |
| 20260509174835 | 27 | 316 | 0.0 | 1.6 | 0.00 | 0.00 | 0.00 | 32 | 1010.8 |
| 20260509174334 | 27 | 109 | 0.0 | 1.6 | 0.00 | 0.00 | 0.00 | 31 | 1010.9 |
| 20260509173834 | 27 | 226 | 0.0 | 6.4 | 0.00 | 0.00 | 0.00 | 30 | 1010.9 |
| 20260509173334 | 28 | 270 | 0.0 | 1.6 | 0.00 | 0.00 | 0.00 | 29 | 1010.9 |
| 20260509172833 | 28 | 247 | 1.6 | 4.8 | 0.00 | 0.00 | 0.00 | 29 | 1010.8 |
| 20260509172333 | 28 | 322 | 0.0 | 3.2 | 0.00 | 0.00 | 0.00 | 28 | 1010.8 |
| 20260509171833 | 28 | 306 | 0.0 | 6.4 | 0.00 | 0.00 | 0.00 | 28 | 1010.9 |
| 20260509171333 | 29 | 306 | 0.0 | 1.6 | 0.00 | 0.00 | 0.00 | 27 | 1011.0 |
| 20260509170832 | 29 | 217 | 0.0 | 3.2 | 0.00 | 0.00 | 0.00 | 27 | 1010.9 |
| 20260509170332 | 29 | 75 | 0.0 | 3.2 | 0.00 | 0.00 | 0.00 | 27 | 1010.9 |
| 20260509165832 | 30 | 223 | 0.0 | 3.2 | 0.00 | 0.00 | 0.00 | 26 | 1010.9 |
| 20260509165331 | 30 | 164 | 0.0 | 3.2 | 0.00 | 0.00 | 0.00 | 26 | 1011.0 |
| 20260509164831 | 30 | 7 | 0.0 | 1.6 | 0.00 | 0.00 | 0.00 | 26 | 1011.0 |
| 20260509164331 | 30 | 305 | 0.0 | 4.8 | 0.00 | 0.00 | 0.00 | 26 | 1011.1 |
| 20260509163831 | 30 | 310 | 0.0 | 4.8 | 0.00 | 0.00 | 0.00 | 25 | 1011.2 |
| 20260509163330 | 30 | 216 | 0.0 | 4.8 | 0.00 | 0.00 | 0.00 | 25 | 1011.2 |
| 20260509162830 | 30 | 250 | 1.6 | 8.0 | 0.00 | 0.00 | 0.00 | 26 | 1011.3 |
| 20260509162330 | 30 | 246 | 1.6 | 4.8 | 0.00 | 0.00 | 0.00 | 26 | 1011.3 |
| 20260509161829 | 30 | 91 | 0.0 | 4.8 | 0.00 | 0.00 | 0.00 | 25 | 1011.3 |
| 20260509161329 | 30 | 120 | 0.0 | 3.2 | 0.00 | 0.00 | 0.00 | 25 | 1011.4 |
| 20260509160829 | 30 | 217 | 0.0 | 3.2 | 0.00 | 0.00 | 0.00 | 25 | 1011.4 |
| 20260509160329 | 30 | 116 | 0.0 | 3.2 | 0.00 | 0.00 | 0.00 | 25 | 1011.4 |
| 20260509155828 | 31 | 74 | 0.0 | 6.4 | 0.00 | 0.00 | 0.00 | 24 | 1011.4 |
| 20260509155328 | 30 | 2 | 1.6 | 4.8 | 0.00 | 0.00 | 0.00 | 24 | 1011.5 |
| 20260509154828 | 30 | 192 | 1.6 | 4.8 | 0.00 | 0.00 | 0.00 | 25 | 1011.6 |
| 20260509154327 | 30 | 113 | 0.0 | 3.2 | 0.00 | 0.00 | 0.00 | 25 | 1011.7 |
| 20260509153827 | 30 | 327 | 1.6 | 8.0 | 0.00 | 0.00 | 0.00 | 25 | 1011.7 |
| 20260509153327 | 30 | 260 | 3.2 | 8.0 | 0.00 | 0.00 | 0.00 | 25 | 1011.7 |
| 20260509152827 | 30 | 95 | 0.0 | 6.4 | 0.00 | 0.00 | 0.00 | 25 | 1011.8 |
| 20260509152326 | 31 | 122 | 6.4 | 8.0 | 0.00 | 0.00 | 0.00 | 24 | 1011.8 |
| 20260509151826 | 31 | 56 | 0.0 | 8.0 | 0.00 | 0.00 | 0.00 | 24 | 1011.9 |
| 20260509151326 | 31 | 334 | 0.0 | 4.8 | 0.00 | 0.00 | 0.00 | 23 | 1011.9 |
| 20260509150825 | 32 | 168 | 4.8 | 4.8 | 0.00 | 0.00 | 0.00 | 23 | 1012.0 |
| 20260509150325 | 31 | 168 | 0.0 | 6.4 | 0.00 | 0.00 | 0.00 | 24 | 1012.0 |
| 20260509145825 | 31 | 217 | 0.0 | 8.0 | 0.00 | 0.00 | 0.00 | 24 | 1011.9 |
| 20260509145325 | 31 | 274 | 0.0 | 8.0 | 0.00 | 0.00 | 0.00 | 24 | 1011.9 |
| 20260509144824 | 30 | 295 | 4.8 | 6.4 | 0.00 | 0.00 | 0.00 | 25 | 1011.9 |
| 20260509144324 | 30 | 225 | 3.2 | 6.4 | 0.00 | 0.00 | 0.00 | 26 | 1012.0 |
| 20260509143824 | 30 | 317 | 1.6 | 6.4 | 0.00 | 0.00 | 0.00 | 26 | 1012.0 |
| 20260509143323 | 30 | 292 | 1.6 | 4.8 | 0.00 | 0.00 | 0.00 | 26 | 1012.1 |
| 20260509142823 | 30 | 209 | 1.6 | 1.6 | 0.00 | 0.00 | 0.00 | 27 | 1012.0 |
| 20260509142323 | 30 | 329 | 0.0 | 6.4 | 0.00 | 0.00 | 0.00 | 26 | 1012.2 |
| 20260509141823 | 30 | 275 | 6.4 | 9.7 | 0.00 | 0.00 | 0.00 | 26 | 1012.2 |
| 20260509141327 | 30 | 9 | 1.6 | 6.4 | 0.00 | 0.00 | 0.00 | 26 | 1012.2 |
| 20260509140822 | 30 | 272 | 3.2 | 6.4 | 0.00 | 0.00 | 0.00 | 26 | 1012.3 |
| 20260509140322 | 29 | 241 | 0.0 | 6.4 | 0.00 | 0.00 | 0.00 | 27 | 1012.4 |
| 20260509135822 | 29 | 47 | 0.0 | 6.4 | 0.00 | 0.00 | 0.00 | 27 | 1012.4 |
| 20260509135321 | 29 | 288 | 1.6 | 6.4 | 0.00 | 0.00 | 0.00 | 27 | 1012.4 |
| 20260509134821 | 29 | 209 | 0.0 | 8.0 | 0.00 | 0.00 | 0.00 | 27 | 1012.5 |
| 20260509134321 | 29 | 59 | 0.0 | 9.7 | 0.00 | 0.00 | 0.00 | 27 | 1012.5 |
| 20260509133820 | 28 | 255 | 6.4 | 6.4 | 0.00 | 0.00 | 0.00 | 29 | 1012.5 |
| 20260509133320 | 28 | 150 | 3.2 | 8.0 | 0.00 | 0.00 | 0.00 | 28 | 1012.6 |
| 20260509132820 | 28 | 257 | 4.8 | 6.4 | 0.00 | 0.00 | 0.00 | 29 | 1012.7 |
| 20260509132320 | 28 | 243 | 0.0 | 12.9 | 0.00 | 0.00 | 0.00 | 30 | 1012.8 |
| 20260509131819 | 27 | 244 | 0.0 | 4.8 | 0.00 | 0.00 | 0.00 | 31 | 1012.8 |
| 20260509131319 | 27 | 229 | 0.0 | 6.4 | 0.00 | 0.00 | 0.00 | 31 | 1012.9 |
| 20260509130819 | 27 | 59 | 0.0 | 11.3 | 0.00 | 0.00 | 0.00 | 31 | 1013.0 |
| 20260509130318 | 27 | 82 | 6.4 | 8.0 | 0.00 | 0.00 | 0.00 | 32 | 1012.9 |
| 20260509125818 | 27 | 343 | 0.0 | 14.5 | 0.00 | 0.00 | 0.00 | 32 | 1013.0 |
| 20260509125318 | 27 | 226 | 1.6 | 11.3 | 0.00 | 0.00 | 0.00 | 32 | 1013.1 |
| 20260509124818 | 27 | 237 | 0.0 | 12.9 | 0.00 | 0.00 | 0.00 | 33 | 1013.2 |
| 20260509124317 | 26 | 2 | 1.6 | 4.8 | 0.00 | 0.00 | 0.00 | 33 | 1013.3 |
| 20260509123817 | 26 | 53 | 0.0 | 6.4 | 0.00 | 0.00 | 0.00 | 34 | 1013.2 |
| 20260509123317 | 26 | 240 | 0.0 | 6.4 | 0.00 | 0.00 | 0.00 | 35 | 1013.3 |
| 20260509122816 | 26 | 253 | 6.4 | 11.3 | 0.00 | 0.00 | 0.00 | 35 | 1013.5 |
| 20260509122316 | 25 | 293 | 0.0 | 8.0 | 0.00 | 0.00 | 0.00 | 36 | 1013.5 |
| 20260509121816 | 25 | 210 | 0.0 | 4.8 | 0.00 | 0.00 | 0.00 | 36 | 1013.6 |
| 20260509121316 | 25 | 258 | 1.6 | 8.0 | 0.00 | 0.00 | 0.00 | 36 | 1013.7 |
| 20260509120816 | 25 | 199 | 0.0 | 8.0 | 0.00 | 0.00 | 0.00 | 37 | 1013.7 |
| 20260509120315 | 25 | 227 | 0.0 | 9.7 | 0.00 | 0.00 | 0.00 | 37 | 1013.8 |
| 20260509115815 | 24 | 194 | 0.0 | 8.0 | 0.00 | 0.00 | 0.00 | 38 | 1013.8 |
| 20260509115314 | 24 | 254 | 3.2 | 9.7 | 0.00 | 0.00 | 0.00 | 39 | 1013.9 |
| 20260509114814 | 24 | 205 | 0.0 | 9.7 | 0.00 | 0.00 | 0.00 | 40 | 1013.8 |
| 20260509114314 | 23 | 40 | 0.0 | 3.2 | 0.00 | 0.00 | 0.00 | 40 | 1014.0 |
| 20260509113814 | 23 | 140 | 1.6 | 8.0 | 0.00 | 0.00 | 0.00 | 41 | 1014.0 |
| 20260509113313 | 23 | 345 | 1.6 | 8.0 | 0.00 | 0.00 | 0.00 | 43 | 1014.0 |
| 20260509112813 | 22 | 225 | 0.0 | 11.3 | 0.00 | 0.00 | 0.00 | 43 | 1014.2 |
| 20260509112313 | 22 | 241 | 6.4 | 6.4 | 0.00 | 0.00 | 0.00 | 44 | 1014.2 |
| 20260509111812 | 22 | 125 | 1.6 | 6.4 | 0.00 | 0.00 | 0.00 | 46 | 1014.2 |
| 20260509111312 | 22 | 293 | 0.0 | 11.3 | 0.00 | 0.00 | 0.00 | 45 | 1014.3 |
| 20260509110812 | 22 | 268 | 9.7 | 11.3 | 0.00 | 0.00 | 0.00 | 45 | 1014.4 |
| 20260509110312 | 22 | 329 | 0.0 | 6.4 | 0.00 | 0.00 | 0.00 | 45 | 1014.5 |
| 20260509105811 | 22 | 296 | 1.6 | 4.8 | 0.00 | 0.00 | 0.00 | 45 | 1014.5 |
| 20260509105311 | 22 | 227 | 1.6 | 8.0 | 0.00 | 0.00 | 0.00 | 46 | 1014.6 |
| 20260509104811 | 21 | 213 | 0.0 | 9.7 | 0.00 | 0.00 | 0.00 | 46 | 1014.6 |
| 20260509104310 | 21 | 341 | 0.0 | 8.0 | 0.00 | 0.00 | 0.00 | 47 | 1014.6 |
| 20260509103810 | 21 | 222 | 1.6 | 6.4 | 0.00 | 0.00 | 0.00 | 47 | 1014.7 |
| 20260509103310 | 21 | 282 | 0.0 | 6.4 | 0.00 | 0.00 | 0.00 | 48 | 1014.8 |
| 20260509102810 | 21 | 295 | 4.8 | 9.7 | 0.00 | 0.00 | 0.00 | 48 | 1014.8 |
| 20260509102309 | 20 | 236 | 0.0 | 8.0 | 0.00 | 0.00 | 0.00 | 49 | 1014.8 |
| 20260509101809 | 20 | 223 | 1.6 | 9.7 | 0.00 | 0.00 | 0.00 | 50 | 1014.9 |
| 20260509101309 | 20 | 264 | 1.6 | 9.7 | 0.00 | 0.00 | 0.00 | 50 | 1014.9 |
| 20260509100808 | 20 | 119 | 0.0 | 9.7 | 0.00 | 0.00 | 0.00 | 51 | 1014.9 |
| 20260509100308 | 20 | 312 | 0.0 | 9.7 | 0.00 | 0.00 | 0.00 | 51 | 1014.9 |
| 20260509095808 | 20 | 195 | 0.0 | 4.8 | 0.00 | 0.00 | 0.00 | 54 | 1015.0 |
| 20260509095308 | 19 | 156 | 0.0 | 4.8 | 0.00 | 0.00 | 0.00 | 54 | 1015.0 |
| 20260509094807 | 19 | 251 | 3.2 | 4.8 | 0.00 | 0.00 | 0.00 | 55 | 1015.0 |
| 20260509094307 | 18 | 143 | 4.8 | 9.7 | 0.00 | 0.00 | 0.00 | 56 | 1015.0 |
| 20260509093807 | 18 | 248 | 4.8 | 11.3 | 0.00 | 0.00 | 0.00 | 58 | 1015.1 |